| time (UTC) | temp C | wind direction | speed KPH | gust KPH | rain 1hr cm | rain 24hr cm | rain mn cm | humidity % | barometer mb |
| 20260906094510 | 33 | 126 | 0.0 | 0.0 | 0.00 | 0.00 | 0.00 | 39 | 1019.0 |
| 20260906093006 | 33 | 94 | 0.0 | 0.0 | 0.00 | 0.00 | 0.00 | 38 | 1019.1 |
| 20260906091502 | 32 | 148 | 0.0 | 0.0 | 0.00 | 0.00 | 0.00 | 38 | 1019.2 |
| 20260906090117 | 32 | 128 | 0.0 | 0.0 | 0.00 | 0.00 | 0.00 | 37 | 1019.3 |
| 20260906084600 | 32 | 111 | 0.0 | 0.0 | 0.00 | 0.00 | 0.00 | 38 | 1019.2 |
| 20260906083056 | 32 | 126 | 0.0 | 0.0 | 0.00 | 0.00 | 0.00 | 38 | 1019.2 |
| 20260906081558 | 32 | 62 | 0.0 | 0.0 | 0.00 | 0.00 | 0.00 | 38 | 1019.1 |
| 20260906080109 | 31 | 140 | 0.0 | 0.0 | 0.00 | 0.00 | 0.00 | 40 | 1019.0 |
| 20260906074604 | 31 | 103 | 0.0 | 0.0 | 0.00 | 0.00 | 0.00 | 42 | 1019.0 |
| 20260906073104 | 31 | 161 | 0.0 | 0.0 | 0.00 | 0.00 | 0.00 | 45 | 1018.8 |
| 20260906071548 | 30 | 180 | 0.0 | 0.0 | 0.00 | 0.00 | 0.00 | 48 | 1018.7 |
| 20260906070045 | 30 | 264 | 0.0 | 0.0 | 0.00 | 0.00 | 0.00 | 52 | 1018.6 |
| 20260906064542 | 29 | 264 | 0.0 | 0.0 | 0.00 | 0.00 | 0.00 | 50 | 1018.5 |
| 20260906063047 | 28 | 264 | 0.0 | 0.0 | 0.00 | 0.00 | 0.00 | 51 | 1018.5 |
| 20260906061541 | 28 | 254 | 0.0 | 0.0 | 0.00 | 0.00 | 0.00 | 49 | 1018.5 |
| 20260906060036 | 27 | 263 | 0.0 | 0.0 | 0.00 | 0.00 | 0.00 | 47 | 1018.3 |
| 20260906054538 | 27 | 264 | 0.0 | 0.0 | 0.00 | 0.00 | 0.00 | 46 | 1018.3 |
| 20260906053035 | 26 | 272 | 0.0 | 0.0 | 0.00 | 0.00 | 0.00 | 48 | 1018.2 |
| 20260906051552 | 26 | 275 | 0.0 | 0.0 | 0.00 | 0.00 | 0.00 | 49 | 1018.0 |
| 20260906050039 | 26 | 275 | 0.0 | 0.0 | 0.00 | 0.00 | 0.00 | 51 | 1018.0 |
| 20260906044541 | 25 | 275 | 0.0 | 0.0 | 0.00 | 0.00 | 0.00 | 53 | 1018.1 |
| 20260906043036 | 26 | 275 | 0.0 | 0.0 | 0.00 | 0.00 | 0.00 | 53 | 1018.0 |
| 20260906041531 | 26 | 275 | 0.0 | 0.0 | 0.00 | 0.00 | 0.00 | 54 | 1017.9 |
| 20260906040036 | 26 | 275 | 0.0 | 0.0 | 0.00 | 0.00 | 0.00 | 55 | 1017.8 |
| 20260906034537 | 26 | 275 | 0.0 | 0.0 | 0.00 | 0.00 | 0.00 | 54 | 1017.7 |
| 20260906033029 | 26 | 275 | 0.0 | 0.0 | 0.00 | 0.00 | 0.00 | 54 | 1017.7 |
| 20260906031537 | 26 | 275 | 0.0 | 0.0 | 0.00 | 0.00 | 0.00 | 53 | 1017.7 |
| 20260906030027 | 26 | 275 | 0.0 | 0.0 | 0.00 | 0.00 | 0.00 | 53 | 1017.6 |
| 20260906024527 | 26 | 275 | 0.0 | 0.0 | 0.00 | 0.00 | 0.00 | 52 | 1017.5 |
| 20260906023026 | 26 | 275 | 0.0 | 0.0 | 0.00 | 0.00 | 0.00 | 52 | 1017.5 |
| 20260906021525 | 26 | 275 | 0.0 | 0.0 | 0.00 | 0.00 | 0.00 | 52 | 1017.5 |
| 20260906020023 | 26 | 275 | 0.0 | 0.0 | 0.00 | 0.00 | 0.00 | 51 | 1017.7 |
| 20260906014528 | 26 | 275 | 0.0 | 0.0 | 0.00 | 0.00 | 0.00 | 51 | 1017.7 |
| 20260906013024 | 26 | 275 | 0.0 | 0.0 | 0.00 | 0.00 | 0.00 | 51 | 1017.8 |
| 20260906011520 | 26 | 275 | 0.0 | 0.0 | 0.00 | 0.00 | 0.00 | 51 | 1017.8 |
| 20260906010018 | 26 | 272 | 0.0 | 0.0 | 0.00 | 0.00 | 0.00 | 51 | 1017.9 |
| 20260906004517 | 26 | 272 | 0.0 | 0.0 | 0.00 | 0.00 | 0.00 | 53 | 1017.9 |
| 20260906003015 | 27 | 268 | 0.0 | 0.0 | 0.00 | 0.00 | 0.00 | 55 | 1018.0 |
| 20260906001512 | 27 | 264 | 0.0 | 0.0 | 0.00 | 0.00 | 0.00 | 57 | 1018.0 |
| 20260906000010 | 27 | 264 | 0.0 | 0.0 | 0.00 | 0.00 | 0.00 | 58 | 1018.2 |
| 20260905234508 | 27 | 263 | 0.0 | 0.0 | 0.00 | 0.00 | 0.00 | 61 | 1018.3 |
| 20260905233008 | 27 | 263 | 0.0 | 0.0 | 0.00 | 0.00 | 0.00 | 61 | 1018.4 |
| 20260905231515 | 27 | 263 | 0.0 | 0.0 | 0.00 | 0.00 | 0.00 | 60 | 1018.3 |
| 20260905230004 | 27 | 263 | 0.0 | 0.0 | 0.00 | 0.00 | 0.00 | 60 | 1018.5 |
| 20260905224503 | 27 | 263 | 0.0 | 0.0 | 0.00 | 0.00 | 0.00 | 60 | 1018.5 |
| 20260905223059 | 28 | 263 | 0.0 | 0.0 | 0.00 | 0.00 | 0.00 | 61 | 1018.4 |
| 20260905221557 | 28 | 263 | 0.0 | 0.0 | 0.00 | 0.00 | 0.00 | 64 | 1018.5 |
| 20260905214553 | 28 | 55 | 0.0 | 0.0 | 0.00 | 0.00 | 0.00 | 64 | 1018.5 |
| 20260905213053 | 28 | 55 | 0.0 | 0.0 | 0.00 | 0.00 | 0.00 | 64 | 1018.5 |
| 20260905211553 | 28 | 52 | 0.0 | 0.0 | 0.00 | 0.00 | 0.00 | 60 | 1018.2 |
| 20260905210104 | 29 | 51 | 0.0 | 0.0 | 0.00 | 0.00 | 0.00 | 57 | 1018.3 |
| 20260905204556 | 29 | 51 | 0.0 | 0.0 | 0.00 | 0.00 | 0.00 | 57 | 1018.3 |
| 20260905203108 | 29 | 51 | 0.0 | 0.0 | 0.00 | 0.00 | 0.00 | 57 | 1018.3 |
| 20260905201552 | 29 | 51 | 0.0 | 0.0 | 0.00 | 0.00 | 0.00 | 57 | 1018.4 |
| 20260905200056 | 29 | 51 | 0.0 | 0.0 | 0.00 | 0.00 | 0.00 | 58 | 1018.5 |
| 20260905194550 | 29 | 51 | 0.0 | 0.0 | 0.00 | 0.00 | 0.00 | 57 | 1018.6 |
| 20260905193049 | 29 | 51 | 0.0 | 0.0 | 0.00 | 0.00 | 0.00 | 58 | 1018.5 |
| 20260905191549 | 29 | 52 | 0.0 | 0.0 | 0.00 | 0.00 | 0.00 | 57 | 1018.5 |
| 20260905190048 | 30 | 52 | 0.0 | 0.0 | 0.00 | 0.00 | 0.00 | 57 | 1018.2 |
| 20260905184549 | 30 | 51 | 0.0 | 0.0 | 0.00 | 0.00 | 0.00 | 56 | 1018.2 |
| 20260905183047 | 30 | 47 | 0.0 | 0.0 | 0.00 | 0.00 | 0.00 | 54 | 1018.1 |
| 20260905181548 | 30 | 77 | 0.0 | 0.0 | 0.00 | 0.00 | 0.00 | 52 | 1018.0 |
| 20260905180047 | 30 | 56 | 0.0 | 0.0 | 0.00 | 0.00 | 0.00 | 51 | 1017.8 |
| 20260905174550 | 30 | 44 | 0.0 | 0.0 | 0.00 | 0.00 | 0.00 | 50 | 1017.7 |
| 20260905173046 | 30 | 80 | 0.0 | 0.0 | 0.00 | 0.00 | 0.00 | 49 | 1017.7 |
| 20260905171557 | 30 | 36 | 0.0 | 0.0 | 0.00 | 0.00 | 0.00 | 51 | 1017.7 |
| 20260905170047 | 31 | 94 | 0.0 | 0.0 | 0.00 | 0.00 | 0.00 | 50 | 1017.9 |
| 20260905164548 | 31 | 52 | 0.0 | 0.0 | 0.00 | 0.00 | 0.00 | 48 | 1017.9 |
| 20260905163052 | 31 | 86 | 0.0 | 0.0 | 0.00 | 0.00 | 0.00 | 50 | 1017.8 |
| 20260905161544 | 31 | 77 | 0.0 | 6.4 | 0.00 | 0.00 | 0.00 | 54 | 1017.8 |
| 20260905160043 | 31 | 121 | 0.0 | 0.0 | 0.00 | 0.00 | 0.00 | 55 | 1017.7 |
| 20260905154555 | 31 | 108 | 0.0 | 0.0 | 0.00 | 0.00 | 0.00 | 55 | 1017.7 |
| 20260905153041 | 31 | 46 | 0.0 | 8.0 | 0.00 | 0.00 | 0.00 | 56 | 1017.7 |
| 20260905151541 | 31 | 92 | 0.0 | 3.2 | 0.00 | 0.00 | 0.00 | 57 | 1017.7 |
| 20260905150045 | 31 | 119 | 0.0 | 4.8 | 0.00 | 0.00 | 0.00 | 56 | 1017.6 |
| 20260905144540 | 31 | 145 | 0.0 | 6.4 | 0.00 | 0.00 | 0.00 | 59 | 1017.7 |
| 20260905143042 | 32 | 68 | 0.0 | 9.7 | 0.00 | 0.00 | 0.00 | 54 | 1017.7 |
| 20260905141538 | 32 | 126 | 0.0 | 9.7 | 0.00 | 0.00 | 0.00 | 55 | 1017.7 |
| 20260905140037 | 31 | 75 | 0.0 | 9.7 | 0.00 | 0.00 | 0.00 | 57 | 1017.8 |
| 20260905134537 | 32 | 56 | 0.0 | 14.5 | 0.00 | 0.00 | 0.00 | 54 | 1017.7 |
| 20260905133036 | 32 | 118 | 1.6 | 12.9 | 0.00 | 0.00 | 0.00 | 49 | 1017.7 |
| 20260905131538 | 32 | 63 | 0.0 | 14.5 | 0.00 | 0.00 | 0.00 | 46 | 1017.7 |
| 20260905130035 | 32 | 61 | 1.6 | 16.1 | 0.00 | 0.00 | 0.00 | 40 | 1017.7 |
| 20260905124535 | 32 | 53 | 0.0 | 17.7 | 0.00 | 0.00 | 0.00 | 41 | 1017.7 |
| 20260905123038 | 32 | 38 | 3.2 | 16.1 | 0.00 | 0.00 | 0.00 | 42 | 1018.0 |
| 20260905121537 | 32 | 57 | 0.0 | 16.1 | 0.00 | 0.00 | 0.00 | 45 | 1018.1 |
| 20260905120036 | 32 | 55 | 0.0 | 14.5 | 0.00 | 0.00 | 0.00 | 45 | 1018.2 |
| 20260905114531 | 32 | 61 | 0.0 | 8.0 | 0.00 | 0.00 | 0.00 | 45 | 1018.3 |
| 20260905113030 | 32 | 79 | 0.0 | 8.0 | 0.00 | 0.00 | 0.00 | 46 | 1018.3 |
| 20260905111530 | 32 | 65 | 0.0 | 6.4 | 0.00 | 0.00 | 0.00 | 47 | 1018.5 |
| 20260905110028 | 32 | 64 | 0.0 | 6.4 | 0.00 | 0.00 | 0.00 | 47 | 1018.5 |
| 20260905104528 | 32 | 92 | 0.0 | 6.4 | 0.00 | 0.00 | 0.00 | 49 | 1018.6 |
| 20260905103028 | 32 | 76 | 0.0 | 3.2 | 0.00 | 0.00 | 0.00 | 51 | 1018.6 |
| 20260905101529 | 32 | 121 | 0.0 | 6.4 | 0.00 | 0.00 | 0.00 | 54 | 1018.7 |
| 20260905100026 | 31 | 86 | 0.0 | 4.8 | 0.00 | 0.00 | 0.00 | 54 | 1018.7 |